Index of /20260504/WXO-DD/model_caps/3km/12/026
Name Last modified Size Description
Parent Directory -
20260504T12Z_MSC_CAPS_AbsoluteVorticity_IsbL-0250_RLatLon0.03_PT026H.grib2 2026-05-04 18:19 1.0M
20260504T12Z_MSC_CAPS_AbsoluteVorticity_IsbL-0500_RLatLon0.03_PT026H.grib2 2026-05-04 18:19 1.1M
20260504T12Z_MSC_CAPS_AbsoluteVorticity_IsbL-0700_RLatLon0.03_PT026H.grib2 2026-05-04 18:19 1.1M
20260504T12Z_MSC_CAPS_AbsoluteVorticity_IsbL-0850_RLatLon0.03_PT026H.grib2 2026-05-04 18:19 1.3M
20260504T12Z_MSC_CAPS_AbsoluteVorticity_IsbL-1000_RLatLon0.03_PT026H.grib2 2026-05-04 18:19 1.4M
20260504T12Z_MSC_CAPS_AirDensity_AGL-120m_RLatLon0.03_PT026H.grib2 2026-05-04 18:19 1.4M
20260504T12Z_MSC_CAPS_AirDensity_AGL-40m_RLatLon0.03_PT026H.grib2 2026-05-04 18:19 1.5M
20260504T12Z_MSC_CAPS_AirDensity_AGL-80m_RLatLon0.03_PT026H.grib2 2026-05-04 18:19 1.4M
20260504T12Z_MSC_CAPS_AirTemp_AGL-120m_RLatLon0.03_PT026H.grib2 2026-05-04 18:19 1.4M
20260504T12Z_MSC_CAPS_AirTemp_AGL-2m_RLatLon0.03_PT026H.grib2 2026-05-04 18:19 1.7M
20260504T12Z_MSC_CAPS_AirTemp_AGL-40m_RLatLon0.03_PT026H.grib2 2026-05-04 18:19 1.5M
20260504T12Z_MSC_CAPS_AirTemp_AGL-80m_RLatLon0.03_PT026H.grib2 2026-05-04 18:19 1.5M
20260504T12Z_MSC_CAPS_AirTemp_IsbL-0050_RLatLon0.03_PT026H.grib2 2026-05-04 18:19 690K
20260504T12Z_MSC_CAPS_AirTemp_IsbL-0100_RLatLon0.03_PT026H.grib2 2026-05-04 18:19 954K
20260504T12Z_MSC_CAPS_AirTemp_IsbL-0150_RLatLon0.03_PT026H.grib2 2026-05-04 18:19 747K
20260504T12Z_MSC_CAPS_AirTemp_IsbL-0175_RLatLon0.03_PT026H.grib2 2026-05-04 18:19 774K
20260504T12Z_MSC_CAPS_AirTemp_IsbL-0200_RLatLon0.03_PT026H.grib2 2026-05-04 18:19 793K
20260504T12Z_MSC_CAPS_AirTemp_IsbL-0225_RLatLon0.03_PT026H.grib2 2026-05-04 18:19 790K
20260504T12Z_MSC_CAPS_AirTemp_IsbL-0250_RLatLon0.03_PT026H.grib2 2026-05-04 18:19 1.0M
20260504T12Z_MSC_CAPS_AirTemp_IsbL-0275_RLatLon0.03_PT026H.grib2 2026-05-04 18:19 1.0M
20260504T12Z_MSC_CAPS_AirTemp_IsbL-0300_RLatLon0.03_PT026H.grib2 2026-05-04 18:19 1.0M
20260504T12Z_MSC_CAPS_AirTemp_IsbL-0350_RLatLon0.03_PT026H.grib2 2026-05-04 18:19 748K
20260504T12Z_MSC_CAPS_AirTemp_IsbL-0400_RLatLon0.03_PT026H.grib2 2026-05-04 18:19 759K
20260504T12Z_MSC_CAPS_AirTemp_IsbL-0450_RLatLon0.03_PT026H.grib2 2026-05-04 18:19 776K
20260504T12Z_MSC_CAPS_AirTemp_IsbL-0500_RLatLon0.03_PT026H.grib2 2026-05-04 18:19 793K
20260504T12Z_MSC_CAPS_AirTemp_IsbL-0550_RLatLon0.03_PT026H.grib2 2026-05-04 18:19 805K
20260504T12Z_MSC_CAPS_AirTemp_IsbL-0600_RLatLon0.03_PT026H.grib2 2026-05-04 18:19 822K
20260504T12Z_MSC_CAPS_AirTemp_IsbL-0650_RLatLon0.03_PT026H.grib2 2026-05-04 18:19 849K
20260504T12Z_MSC_CAPS_AirTemp_IsbL-0700_RLatLon0.03_PT026H.grib2 2026-05-04 18:19 1.0M
20260504T12Z_MSC_CAPS_AirTemp_IsbL-0750_RLatLon0.03_PT026H.grib2 2026-05-04 18:19 1.0M
20260504T12Z_MSC_CAPS_AirTemp_IsbL-0800_RLatLon0.03_PT026H.grib2 2026-05-04 18:19 1.1M
20260504T12Z_MSC_CAPS_AirTemp_IsbL-0850_RLatLon0.03_PT026H.grib2 2026-05-04 18:19 1.1M
20260504T12Z_MSC_CAPS_AirTemp_IsbL-0875_RLatLon0.03_PT026H.grib2 2026-05-04 18:19 1.1M
20260504T12Z_MSC_CAPS_AirTemp_IsbL-0900_RLatLon0.03_PT026H.grib2 2026-05-04 18:19 1.1M
20260504T12Z_MSC_CAPS_AirTemp_IsbL-0925_RLatLon0.03_PT026H.grib2 2026-05-04 18:19 1.2M
20260504T12Z_MSC_CAPS_AirTemp_IsbL-0950_RLatLon0.03_PT026H.grib2 2026-05-04 18:19 1.1M
20260504T12Z_MSC_CAPS_AirTemp_IsbL-0970_RLatLon0.03_PT026H.grib2 2026-05-04 18:19 1.1M
20260504T12Z_MSC_CAPS_AirTemp_IsbL-0985_RLatLon0.03_PT026H.grib2 2026-05-04 18:19 1.1M
20260504T12Z_MSC_CAPS_AirTemp_IsbL-1000_RLatLon0.03_PT026H.grib2 2026-05-04 18:19 1.0M
20260504T12Z_MSC_CAPS_AirTemp_IsbL-1015_RLatLon0.03_PT026H.grib2 2026-05-04 18:19 1.1M
20260504T12Z_MSC_CAPS_Albedo_Sfc_RLatLon0.03_PT026H.grib2 2026-05-04 18:19 2.7M
20260504T12Z_MSC_CAPS_CAPE_Sfc_RLatLon0.03_PT026H.grib2 2026-05-04 18:19 233K
20260504T12Z_MSC_CAPS_CloudWater_EAtm_RLatLon0.03_PT026H.grib2 2026-05-04 18:19 1.6M
20260504T12Z_MSC_CAPS_ConvectivePrecip-Accum_Sfc_RLatLon0.03_PT026H.grib2 2026-05-04 18:19 3.9M
20260504T12Z_MSC_CAPS_DewPointDepression_AGL-120m_RLatLon0.03_PT026H.grib2 2026-05-04 18:19 2.1M
20260504T12Z_MSC_CAPS_DewPointDepression_AGL-2m_RLatLon0.03_PT026H.grib2 2026-05-04 18:19 2.1M
20260504T12Z_MSC_CAPS_DewPointDepression_AGL-40m_RLatLon0.03_PT026H.grib2 2026-05-04 18:19 2.1M
20260504T12Z_MSC_CAPS_DewPointDepression_AGL-80m_RLatLon0.03_PT026H.grib2 2026-05-04 18:19 2.1M
20260504T12Z_MSC_CAPS_DewPointDepression_IsbL-0050_RLatLon0.03_PT026H.grib2 2026-05-04 18:19 2.9K
20260504T12Z_MSC_CAPS_DewPointDepression_IsbL-0100_RLatLon0.03_PT026H.grib2 2026-05-04 18:19 62K
20260504T12Z_MSC_CAPS_DewPointDepression_IsbL-0150_RLatLon0.03_PT026H.grib2 2026-05-04 18:19 65K
20260504T12Z_MSC_CAPS_DewPointDepression_IsbL-0175_RLatLon0.03_PT026H.grib2 2026-05-04 18:19 208K
20260504T12Z_MSC_CAPS_DewPointDepression_IsbL-0200_RLatLon0.03_PT026H.grib2 2026-05-04 18:19 384K
20260504T12Z_MSC_CAPS_DewPointDepression_IsbL-0225_RLatLon0.03_PT026H.grib2 2026-05-04 18:19 616K
20260504T12Z_MSC_CAPS_DewPointDepression_IsbL-0250_RLatLon0.03_PT026H.grib2 2026-05-04 18:19 864K
20260504T12Z_MSC_CAPS_DewPointDepression_IsbL-0275_RLatLon0.03_PT026H.grib2 2026-05-04 18:19 1.0M
20260504T12Z_MSC_CAPS_DewPointDepression_IsbL-0300_RLatLon0.03_PT026H.grib2 2026-05-04 18:19 1.0M
20260504T12Z_MSC_CAPS_DewPointDepression_IsbL-0350_RLatLon0.03_PT026H.grib2 2026-05-04 18:19 1.1M
20260504T12Z_MSC_CAPS_DewPointDepression_IsbL-0400_RLatLon0.03_PT026H.grib2 2026-05-04 18:19 1.1M
20260504T12Z_MSC_CAPS_DewPointDepression_IsbL-0450_RLatLon0.03_PT026H.grib2 2026-05-04 18:19 1.2M
20260504T12Z_MSC_CAPS_DewPointDepression_IsbL-0500_RLatLon0.03_PT026H.grib2 2026-05-04 18:19 1.2M
20260504T12Z_MSC_CAPS_DewPointDepression_IsbL-0550_RLatLon0.03_PT026H.grib2 2026-05-04 18:19 1.2M
20260504T12Z_MSC_CAPS_DewPointDepression_IsbL-0600_RLatLon0.03_PT026H.grib2 2026-05-04 18:19 1.3M
20260504T12Z_MSC_CAPS_DewPointDepression_IsbL-0650_RLatLon0.03_PT026H.grib2 2026-05-04 18:19 1.3M
20260504T12Z_MSC_CAPS_DewPointDepression_IsbL-0700_RLatLon0.03_PT026H.grib2 2026-05-04 18:19 1.3M
20260504T12Z_MSC_CAPS_DewPointDepression_IsbL-0750_RLatLon0.03_PT026H.grib2 2026-05-04 18:19 1.3M
20260504T12Z_MSC_CAPS_DewPointDepression_IsbL-0800_RLatLon0.03_PT026H.grib2 2026-05-04 18:19 1.3M
20260504T12Z_MSC_CAPS_DewPointDepression_IsbL-0850_RLatLon0.03_PT026H.grib2 2026-05-04 18:19 1.3M
20260504T12Z_MSC_CAPS_DewPointDepression_IsbL-0875_RLatLon0.03_PT026H.grib2 2026-05-04 18:19 1.3M
20260504T12Z_MSC_CAPS_DewPointDepression_IsbL-0900_RLatLon0.03_PT026H.grib2 2026-05-04 18:19 1.4M
20260504T12Z_MSC_CAPS_DewPointDepression_IsbL-0925_RLatLon0.03_PT026H.grib2 2026-05-04 18:19 1.4M
20260504T12Z_MSC_CAPS_DewPointDepression_IsbL-0950_RLatLon0.03_PT026H.grib2 2026-05-04 18:19 1.4M
20260504T12Z_MSC_CAPS_DewPointDepression_IsbL-0970_RLatLon0.03_PT026H.grib2 2026-05-04 18:19 1.4M
20260504T12Z_MSC_CAPS_DewPointDepression_IsbL-0985_RLatLon0.03_PT026H.grib2 2026-05-04 18:19 1.4M
20260504T12Z_MSC_CAPS_DewPointDepression_IsbL-1000_RLatLon0.03_PT026H.grib2 2026-05-04 18:19 1.4M
20260504T12Z_MSC_CAPS_DewPointDepression_IsbL-1015_RLatLon0.03_PT026H.grib2 2026-05-04 18:19 1.3M
20260504T12Z_MSC_CAPS_DewPoint_AGL-120m_RLatLon0.03_PT026H.grib2 2026-05-04 18:19 3.7M
20260504T12Z_MSC_CAPS_DewPoint_AGL-2m_RLatLon0.03_PT026H.grib2 2026-05-04 18:19 2.1M
20260504T12Z_MSC_CAPS_DewPoint_AGL-40m_RLatLon0.03_PT026H.grib2 2026-05-04 18:19 3.7M
20260504T12Z_MSC_CAPS_DewPoint_AGL-80m_RLatLon0.03_PT026H.grib2 2026-05-04 18:19 3.7M
20260504T12Z_MSC_CAPS_DownwardLongwaveRadiationFlux-Accum_Sfc_RLatLon0.03_PT026H.grib2 2026-05-04 18:19 2.3M
20260504T12Z_MSC_CAPS_DownwardShortwaveRadiationFlux-Accum_NTAtm_RLatLon0.03_PT026H.grib2 2026-05-04 18:19 488K
20260504T12Z_MSC_CAPS_DownwardShortwaveRadiationFlux-Accum_Sfc_RLatLon0.03_PT026H.grib2 2026-05-04 18:19 2.8M
20260504T12Z_MSC_CAPS_FreezingRain-Accum_Sfc_RLatLon0.03_PT026H.grib2 2026-05-04 18:19 661K
20260504T12Z_MSC_CAPS_GeopotentialHeight_IsbL-0050_RLatLon0.03_PT026H.grib2 2026-05-04 18:19 829K
20260504T12Z_MSC_CAPS_GeopotentialHeight_IsbL-0100_RLatLon0.03_PT026H.grib2 2026-05-04 18:19 824K
20260504T12Z_MSC_CAPS_GeopotentialHeight_IsbL-0150_RLatLon0.03_PT026H.grib2 2026-05-04 18:19 609K
20260504T12Z_MSC_CAPS_GeopotentialHeight_IsbL-0175_RLatLon0.03_PT026H.grib2 2026-05-04 18:19 724K
20260504T12Z_MSC_CAPS_GeopotentialHeight_IsbL-0200_RLatLon0.03_PT026H.grib2 2026-05-04 18:19 742K
20260504T12Z_MSC_CAPS_GeopotentialHeight_IsbL-0225_RLatLon0.03_PT026H.grib2 2026-05-04 18:19 759K
20260504T12Z_MSC_CAPS_GeopotentialHeight_IsbL-0250_RLatLon0.03_PT026H.grib2 2026-05-04 18:19 767K
20260504T12Z_MSC_CAPS_GeopotentialHeight_IsbL-0275_RLatLon0.03_PT026H.grib2 2026-05-04 18:19 773K
20260504T12Z_MSC_CAPS_GeopotentialHeight_IsbL-0300_RLatLon0.03_PT026H.grib2 2026-05-04 18:19 778K
20260504T12Z_MSC_CAPS_GeopotentialHeight_IsbL-0350_RLatLon0.03_PT026H.grib2 2026-05-04 18:19 781K
20260504T12Z_MSC_CAPS_GeopotentialHeight_IsbL-0400_RLatLon0.03_PT026H.grib2 2026-05-04 18:19 778K
20260504T12Z_MSC_CAPS_GeopotentialHeight_IsbL-0450_RLatLon0.03_PT026H.grib2 2026-05-04 18:19 772K
20260504T12Z_MSC_CAPS_GeopotentialHeight_IsbL-0500_RLatLon0.03_PT026H.grib2 2026-05-04 18:19 764K
20260504T12Z_MSC_CAPS_GeopotentialHeight_IsbL-0550_RLatLon0.03_PT026H.grib2 2026-05-04 18:19 647K
20260504T12Z_MSC_CAPS_GeopotentialHeight_IsbL-0600_RLatLon0.03_PT026H.grib2 2026-05-04 18:19 642K
20260504T12Z_MSC_CAPS_GeopotentialHeight_IsbL-0650_RLatLon0.03_PT026H.grib2 2026-05-04 18:19 813K
20260504T12Z_MSC_CAPS_GeopotentialHeight_IsbL-0700_RLatLon0.03_PT026H.grib2 2026-05-04 18:19 814K
20260504T12Z_MSC_CAPS_GeopotentialHeight_IsbL-0750_RLatLon0.03_PT026H.grib2 2026-05-04 18:19 894K
20260504T12Z_MSC_CAPS_GeopotentialHeight_IsbL-0800_RLatLon0.03_PT026H.grib2 2026-05-04 18:19 828K
20260504T12Z_MSC_CAPS_GeopotentialHeight_IsbL-0850_RLatLon0.03_PT026H.grib2 2026-05-04 18:19 839K
20260504T12Z_MSC_CAPS_GeopotentialHeight_IsbL-0875_RLatLon0.03_PT026H.grib2 2026-05-04 18:19 846K
20260504T12Z_MSC_CAPS_GeopotentialHeight_IsbL-0900_RLatLon0.03_PT026H.grib2 2026-05-04 18:19 851K
20260504T12Z_MSC_CAPS_GeopotentialHeight_IsbL-0925_RLatLon0.03_PT026H.grib2 2026-05-04 18:19 846K
20260504T12Z_MSC_CAPS_GeopotentialHeight_IsbL-0950_RLatLon0.03_PT026H.grib2 2026-05-04 18:19 681K
20260504T12Z_MSC_CAPS_GeopotentialHeight_IsbL-0970_RLatLon0.03_PT026H.grib2 2026-05-04 18:19 687K
20260504T12Z_MSC_CAPS_GeopotentialHeight_IsbL-0985_RLatLon0.03_PT026H.grib2 2026-05-04 18:19 693K
20260504T12Z_MSC_CAPS_GeopotentialHeight_IsbL-1000_RLatLon0.03_PT026H.grib2 2026-05-04 18:19 700K
20260504T12Z_MSC_CAPS_GeopotentialHeight_IsbL-1015_RLatLon0.03_PT026H.grib2 2026-05-04 18:19 707K
20260504T12Z_MSC_CAPS_GeopotentialHeight_Sfc_RLatLon0.03_PT026H.grib2 2026-05-04 18:19 1.0M
20260504T12Z_MSC_CAPS_IcePellets-Accum_Sfc_RLatLon0.03_PT026H.grib2 2026-05-04 18:19 82K
20260504T12Z_MSC_CAPS_LatentHeatNetFlux_Sfc_RLatLon0.03_PT026H.grib2 2026-05-04 18:19 1.9M
20260504T12Z_MSC_CAPS_LiftedIndex-MU-VT_IsbL-0500_RLatLon0.03_PT026H.grib2 2026-05-04 18:19 3.4M
20260504T12Z_MSC_CAPS_MixedLayerThickness_Sfc_RLatLon0.03_PT026H.nc 2026-05-04 18:14 16M
20260504T12Z_MSC_CAPS_NetLongwaveRadiationFlux-Accum_Sfc_RLatLon0.03_PT026H.grib2 2026-05-04 18:19 3.1M
20260504T12Z_MSC_CAPS_NetShortwaveRadiationFlux-Accum_Sfc_RLatLon0.03_PT026H.grib2 2026-05-04 18:19 3.2M
20260504T12Z_MSC_CAPS_PlanetaryBoundaryLayerHeight_Sfc_RLatLon0.03_PT026H.grib2 2026-05-04 18:19 2.5M
20260504T12Z_MSC_CAPS_Precip-Accum_Sfc_RLatLon0.03_PT026H.grib2 2026-05-04 18:19 4.8M
20260504T12Z_MSC_CAPS_PrecipRate_Sfc_RLatLon0.03_PT026H.grib2 2026-05-04 18:19 359K
20260504T12Z_MSC_CAPS_PrecipType-Instant_Sfc_RLatLon0.03_PT026H.grib2 2026-05-04 18:19 2.1M
20260504T12Z_MSC_CAPS_Pressure_MSL_RLatLon0.03_PT026H.grib2 2026-05-04 18:19 933K
20260504T12Z_MSC_CAPS_Pressure_Sfc_RLatLon0.03_PT026H.grib2 2026-05-04 18:19 1.2M
20260504T12Z_MSC_CAPS_RadiativeTemp_Sfc_RLatLon0.03_PT026H.grib2 2026-05-04 18:19 2.1M
20260504T12Z_MSC_CAPS_Rain-Accum_Sfc_RLatLon0.03_PT026H.grib2 2026-05-04 18:19 2.3M
20260504T12Z_MSC_CAPS_RelativeHumidity_AGL-120m_RLatLon0.03_PT026H.grib2 2026-05-04 18:19 2.8M
20260504T12Z_MSC_CAPS_RelativeHumidity_AGL-2m_RLatLon0.03_PT026H.grib2 2026-05-04 18:19 2.9M
20260504T12Z_MSC_CAPS_RelativeHumidity_AGL-40m_RLatLon0.03_PT026H.grib2 2026-05-04 18:19 2.9M
20260504T12Z_MSC_CAPS_RelativeHumidity_AGL-80m_RLatLon0.03_PT026H.grib2 2026-05-04 18:19 2.8M
20260504T12Z_MSC_CAPS_RelativeHumidity_IsbL-0050_RLatLon0.03_PT026H.grib2 2026-05-04 18:19 1.0M
20260504T12Z_MSC_CAPS_RelativeHumidity_IsbL-0100_RLatLon0.03_PT026H.grib2 2026-05-04 18:19 872K
20260504T12Z_MSC_CAPS_RelativeHumidity_IsbL-0150_RLatLon0.03_PT026H.grib2 2026-05-04 18:19 604K
20260504T12Z_MSC_CAPS_RelativeHumidity_IsbL-0175_RLatLon0.03_PT026H.grib2 2026-05-04 18:19 486K
20260504T12Z_MSC_CAPS_RelativeHumidity_IsbL-0200_RLatLon0.03_PT026H.grib2 2026-05-04 18:19 667K
20260504T12Z_MSC_CAPS_RelativeHumidity_IsbL-0225_RLatLon0.03_PT026H.grib2 2026-05-04 18:19 880K
20260504T12Z_MSC_CAPS_RelativeHumidity_IsbL-0250_RLatLon0.03_PT026H.grib2 2026-05-04 18:19 1.1M
20260504T12Z_MSC_CAPS_RelativeHumidity_IsbL-0275_RLatLon0.03_PT026H.grib2 2026-05-04 18:19 1.4M
20260504T12Z_MSC_CAPS_RelativeHumidity_IsbL-0300_RLatLon0.03_PT026H.grib2 2026-05-04 18:19 1.5M
20260504T12Z_MSC_CAPS_RelativeHumidity_IsbL-0350_RLatLon0.03_PT026H.grib2 2026-05-04 18:19 2.0M
20260504T12Z_MSC_CAPS_RelativeHumidity_IsbL-0400_RLatLon0.03_PT026H.grib2 2026-05-04 18:19 2.1M
20260504T12Z_MSC_CAPS_RelativeHumidity_IsbL-0450_RLatLon0.03_PT026H.grib2 2026-05-04 18:19 2.0M
20260504T12Z_MSC_CAPS_RelativeHumidity_IsbL-0500_RLatLon0.03_PT026H.grib2 2026-05-04 18:19 2.2M
20260504T12Z_MSC_CAPS_RelativeHumidity_IsbL-0550_RLatLon0.03_PT026H.grib2 2026-05-04 18:19 2.1M
20260504T12Z_MSC_CAPS_RelativeHumidity_IsbL-0600_RLatLon0.03_PT026H.grib2 2026-05-04 18:19 2.1M
20260504T12Z_MSC_CAPS_RelativeHumidity_IsbL-0650_RLatLon0.03_PT026H.grib2 2026-05-04 18:19 2.3M
20260504T12Z_MSC_CAPS_RelativeHumidity_IsbL-0700_RLatLon0.03_PT026H.grib2 2026-05-04 18:19 2.3M
20260504T12Z_MSC_CAPS_RelativeHumidity_IsbL-0750_RLatLon0.03_PT026H.grib2 2026-05-04 18:19 2.4M
20260504T12Z_MSC_CAPS_RelativeHumidity_IsbL-0800_RLatLon0.03_PT026H.grib2 2026-05-04 18:19 2.5M
20260504T12Z_MSC_CAPS_RelativeHumidity_IsbL-0850_RLatLon0.03_PT026H.grib2 2026-05-04 18:19 2.6M
20260504T12Z_MSC_CAPS_RelativeHumidity_IsbL-0875_RLatLon0.03_PT026H.grib2 2026-05-04 18:19 2.6M
20260504T12Z_MSC_CAPS_RelativeHumidity_IsbL-0900_RLatLon0.03_PT026H.grib2 2026-05-04 18:19 2.6M
20260504T12Z_MSC_CAPS_RelativeHumidity_IsbL-0925_RLatLon0.03_PT026H.grib2 2026-05-04 18:19 2.7M
20260504T12Z_MSC_CAPS_RelativeHumidity_IsbL-0950_RLatLon0.03_PT026H.grib2 2026-05-04 18:19 2.7M
20260504T12Z_MSC_CAPS_RelativeHumidity_IsbL-0970_RLatLon0.03_PT026H.grib2 2026-05-04 18:19 2.8M
20260504T12Z_MSC_CAPS_RelativeHumidity_IsbL-0985_RLatLon0.03_PT026H.grib2 2026-05-04 18:19 2.9M
20260504T12Z_MSC_CAPS_RelativeHumidity_IsbL-1000_RLatLon0.03_PT026H.grib2 2026-05-04 18:19 2.9M
20260504T12Z_MSC_CAPS_RelativeHumidity_IsbL-1015_RLatLon0.03_PT026H.grib2 2026-05-04 18:19 2.9M
20260504T12Z_MSC_CAPS_Runoff-Accum_Sfc_RLatLon0.03_PT026H.grib2 2026-05-04 18:19 279K
20260504T12Z_MSC_CAPS_SeaIceAreaFraction_Sfc_RLatLon0.03_PT026H.nc 2026-05-04 18:14 15M
20260504T12Z_MSC_CAPS_SeaIceCompressiveStrength_Sfc_RLatLon0.03_PT026H.nc 2026-05-04 18:14 15M
20260504T12Z_MSC_CAPS_SeaIceDivergence_Sfc_RLatLon0.03_PT026H.nc 2026-05-04 18:14 15M
20260504T12Z_MSC_CAPS_SeaIceInternalPressure_Sfc_RLatLon0.03_PT026H.nc 2026-05-04 18:14 15M
20260504T12Z_MSC_CAPS_SeaIceShear_Sfc_RLatLon0.03_PT026H.nc 2026-05-04 18:14 14M
20260504T12Z_MSC_CAPS_SeaIceSnowTemp_Sfc_RLatLon0.03_PT026H.nc 2026-05-04 18:14 14M
20260504T12Z_MSC_CAPS_SeaIceSnowVolume_Sfc_RLatLon0.03_PT026H.nc 2026-05-04 18:14 15M
20260504T12Z_MSC_CAPS_SeaIceVelocityX_Sfc_RLatLon0.03_PT026H.nc 2026-05-04 18:14 15M
20260504T12Z_MSC_CAPS_SeaIceVelocityY_Sfc_RLatLon0.03_PT026H.nc 2026-05-04 18:14 15M
20260504T12Z_MSC_CAPS_SeaIceVolume_Sfc_RLatLon0.03_PT026H.nc 2026-05-04 18:14 15M
20260504T12Z_MSC_CAPS_SeaSurfaceHeight_Sfc_RLatLon0.03_PT026H.nc 2026-05-04 18:14 16M
20260504T12Z_MSC_CAPS_SeaWaterSalinity_DBS-0.5m_RLatLon0.03_PT026H.nc 2026-05-04 18:14 16M
20260504T12Z_MSC_CAPS_SeaWaterSalinity_DBS-all_RLatLon0.03_PT026H.nc 2026-05-04 18:14 107M
20260504T12Z_MSC_CAPS_SeaWaterTemp_DBS-0.5m_RLatLon0.03_PT026H.nc 2026-05-04 18:14 14M
20260504T12Z_MSC_CAPS_SeaWaterTemp_DBS-all_RLatLon0.03_PT026H.nc 2026-05-04 18:14 88M
20260504T12Z_MSC_CAPS_SeaWaterVelocityX_DBS-0.5m_RLatLon0.03_PT026H.nc 2026-05-04 18:14 17M
20260504T12Z_MSC_CAPS_SeaWaterVelocityX_DBS-all_RLatLon0.03_PT026H.nc 2026-05-04 18:14 202M
20260504T12Z_MSC_CAPS_SeaWaterVelocityY_DBS-0.5m_RLatLon0.03_PT026H.nc 2026-05-04 18:14 18M
20260504T12Z_MSC_CAPS_SeaWaterVelocityY_DBS-all_RLatLon0.03_PT026H.nc 2026-05-04 18:14 213M
20260504T12Z_MSC_CAPS_SensibleHeatNetFlux_Sfc_RLatLon0.03_PT026H.grib2 2026-05-04 18:19 2.1M
20260504T12Z_MSC_CAPS_ShowalterIndex_IsbL-0500_RLatLon0.03_PT026H.grib2 2026-05-04 18:19 4.3M
20260504T12Z_MSC_CAPS_Snow-Accum_Sfc_RLatLon0.03_PT026H.grib2 2026-05-04 18:19 3.7M
20260504T12Z_MSC_CAPS_SnowDensity_Sfc_RLatLon0.03_PT026H.grib2 2026-05-04 18:19 1.3M
20260504T12Z_MSC_CAPS_SnowDepthWaterEquivalent_Sfc_RLatLon0.03_PT026H.grib2 2026-05-04 18:19 660K
20260504T12Z_MSC_CAPS_SnowDepth_Sfc_RLatLon0.03_PT026H.grib2 2026-05-04 18:19 1.1M
20260504T12Z_MSC_CAPS_SoilTemp_DBS-0to10cm_RLatLon0.03_PT026H.grib2 2026-05-04 18:19 1.6M
20260504T12Z_MSC_CAPS_SoilTemp_Sfc_RLatLon0.03_PT026H.grib2 2026-05-04 18:19 1.8M
20260504T12Z_MSC_CAPS_SoilVolumetricIceContent_Sfc_RLatLon0.03_PT026H.grib2 2026-05-04 18:19 1.4M
20260504T12Z_MSC_CAPS_SoilVolumetricWaterContent_DBS-0to10cm_RLatLon0.03_PT026H.grib2 2026-05-04 18:19 1.3M
20260504T12Z_MSC_CAPS_SoilVolumetricWaterContent_DBS-0to1cm_RLatLon0.03_PT026H.grib2 2026-05-04 18:19 1.7M
20260504T12Z_MSC_CAPS_SpecificHumidity_AGL-120m_RLatLon0.03_PT026H.grib2 2026-05-04 18:19 1.4M
20260504T12Z_MSC_CAPS_SpecificHumidity_AGL-2m_RLatLon0.03_PT026H.grib2 2026-05-04 18:19 1.7M
20260504T12Z_MSC_CAPS_SpecificHumidity_AGL-40m_RLatLon0.03_PT026H.grib2 2026-05-04 18:19 1.5M
20260504T12Z_MSC_CAPS_SpecificHumidity_AGL-80m_RLatLon0.03_PT026H.grib2 2026-05-04 18:19 1.5M
20260504T12Z_MSC_CAPS_SpecificHumidity_IsbL-0050_RLatLon0.03_PT026H.grib2 2026-05-04 18:19 920K
20260504T12Z_MSC_CAPS_SpecificHumidity_IsbL-0100_RLatLon0.03_PT026H.grib2 2026-05-04 18:19 1.0M
20260504T12Z_MSC_CAPS_SpecificHumidity_IsbL-0150_RLatLon0.03_PT026H.grib2 2026-05-04 18:19 1.0M
20260504T12Z_MSC_CAPS_SpecificHumidity_IsbL-0175_RLatLon0.03_PT026H.grib2 2026-05-04 18:19 1.0M
20260504T12Z_MSC_CAPS_SpecificHumidity_IsbL-0200_RLatLon0.03_PT026H.grib2 2026-05-04 18:19 902K
20260504T12Z_MSC_CAPS_SpecificHumidity_IsbL-0225_RLatLon0.03_PT026H.grib2 2026-05-04 18:19 1.1M
20260504T12Z_MSC_CAPS_SpecificHumidity_IsbL-0250_RLatLon0.03_PT026H.grib2 2026-05-04 18:19 1.1M
20260504T12Z_MSC_CAPS_SpecificHumidity_IsbL-0275_RLatLon0.03_PT026H.grib2 2026-05-04 18:19 1.1M
20260504T12Z_MSC_CAPS_SpecificHumidity_IsbL-0300_RLatLon0.03_PT026H.grib2 2026-05-04 18:19 1.0M
20260504T12Z_MSC_CAPS_SpecificHumidity_IsbL-0350_RLatLon0.03_PT026H.grib2 2026-05-04 18:19 1.0M
20260504T12Z_MSC_CAPS_SpecificHumidity_IsbL-0400_RLatLon0.03_PT026H.grib2 2026-05-04 18:19 1.3M
20260504T12Z_MSC_CAPS_SpecificHumidity_IsbL-0450_RLatLon0.03_PT026H.grib2 2026-05-04 18:19 1.1M
20260504T12Z_MSC_CAPS_SpecificHumidity_IsbL-0500_RLatLon0.03_PT026H.grib2 2026-05-04 18:19 1.1M
20260504T12Z_MSC_CAPS_SpecificHumidity_IsbL-0550_RLatLon0.03_PT026H.grib2 2026-05-04 18:19 1.3M
20260504T12Z_MSC_CAPS_SpecificHumidity_IsbL-0600_RLatLon0.03_PT026H.grib2 2026-05-04 18:19 1.4M
20260504T12Z_MSC_CAPS_SpecificHumidity_IsbL-0650_RLatLon0.03_PT026H.grib2 2026-05-04 18:19 1.5M
20260504T12Z_MSC_CAPS_SpecificHumidity_IsbL-0700_RLatLon0.03_PT026H.grib2 2026-05-04 18:19 1.3M
20260504T12Z_MSC_CAPS_SpecificHumidity_IsbL-0750_RLatLon0.03_PT026H.grib2 2026-05-04 18:19 1.4M
20260504T12Z_MSC_CAPS_SpecificHumidity_IsbL-0800_RLatLon0.03_PT026H.grib2 2026-05-04 18:19 1.6M
20260504T12Z_MSC_CAPS_SpecificHumidity_IsbL-0850_RLatLon0.03_PT026H.grib2 2026-05-04 18:19 1.7M
20260504T12Z_MSC_CAPS_SpecificHumidity_IsbL-0875_RLatLon0.03_PT026H.grib2 2026-05-04 18:19 1.8M
20260504T12Z_MSC_CAPS_SpecificHumidity_IsbL-0900_RLatLon0.03_PT026H.grib2 2026-05-04 18:19 1.9M
20260504T12Z_MSC_CAPS_SpecificHumidity_IsbL-0925_RLatLon0.03_PT026H.grib2 2026-05-04 18:19 1.5M
20260504T12Z_MSC_CAPS_SpecificHumidity_IsbL-0950_RLatLon0.03_PT026H.grib2 2026-05-04 18:19 1.6M
20260504T12Z_MSC_CAPS_SpecificHumidity_IsbL-0970_RLatLon0.03_PT026H.grib2 2026-05-04 18:19 1.6M
20260504T12Z_MSC_CAPS_SpecificHumidity_IsbL-0985_RLatLon0.03_PT026H.grib2 2026-05-04 18:19 1.7M
20260504T12Z_MSC_CAPS_SpecificHumidity_IsbL-1000_RLatLon0.03_PT026H.grib2 2026-05-04 18:19 1.7M
20260504T12Z_MSC_CAPS_SpecificHumidity_IsbL-1015_RLatLon0.03_PT026H.grib2 2026-05-04 18:19 1.7M
20260504T12Z_MSC_CAPS_SpecificHumidity_Sfc_RLatLon0.03_PT026H.grib2 2026-05-04 18:19 2.1M
20260504T12Z_MSC_CAPS_StormRelativeHelicity_Sfc_RLatLon0.03_PT026H.grib2 2026-05-04 18:19 3.3M
20260504T12Z_MSC_CAPS_Thickness_IsbL-1000to0500_RLatLon0.03_PT026H.grib2 2026-05-04 18:19 433K
20260504T12Z_MSC_CAPS_TotalCloudCover_Sfc_RLatLon0.03_PT026H.grib2 2026-05-04 18:19 3.6M
20260504T12Z_MSC_CAPS_TurboclineDepth_Sfc_RLatLon0.03_PT026H.nc 2026-05-04 18:14 16M
20260504T12Z_MSC_CAPS_UpwardLongwaveRadiationFlux_NTAtm_RLatLon0.03_PT026H.grib2 2026-05-04 18:19 2.9M
20260504T12Z_MSC_CAPS_UpwardShortwaveRadiationFlux_NTAtm_RLatLon0.03_PT026H.grib2 2026-05-04 18:19 2.4M
20260504T12Z_MSC_CAPS_VerticalVelocity_IsbL-0250_RLatLon0.03_PT026H.grib2 2026-05-04 18:19 1.0M
20260504T12Z_MSC_CAPS_VerticalVelocity_IsbL-0500_RLatLon0.03_PT026H.grib2 2026-05-04 18:19 1.0M
20260504T12Z_MSC_CAPS_VerticalVelocity_IsbL-0700_RLatLon0.03_PT026H.grib2 2026-05-04 18:19 1.1M
20260504T12Z_MSC_CAPS_VerticalVelocity_IsbL-0850_RLatLon0.03_PT026H.grib2 2026-05-04 18:19 1.1M
20260504T12Z_MSC_CAPS_VerticalVelocity_IsbL-1000_RLatLon0.03_PT026H.grib2 2026-05-04 18:19 1.1M
20260504T12Z_MSC_CAPS_WindDir_AGL-10m_RLatLon0.03_PT026H.grib2 2026-05-04 18:19 2.4M
20260504T12Z_MSC_CAPS_WindDir_AGL-120m_RLatLon0.03_PT026H.grib2 2026-05-04 18:19 1.2M
20260504T12Z_MSC_CAPS_WindDir_AGL-40m_RLatLon0.03_PT026H.grib2 2026-05-04 18:19 1.4M
20260504T12Z_MSC_CAPS_WindDir_AGL-80m_RLatLon0.03_PT026H.grib2 2026-05-04 18:19 1.3M
20260504T12Z_MSC_CAPS_WindDir_IsbL-0050_RLatLon0.03_PT026H.grib2 2026-05-04 18:19 1.0M
20260504T12Z_MSC_CAPS_WindDir_IsbL-0100_RLatLon0.03_PT026H.grib2 2026-05-04 18:19 1.1M
20260504T12Z_MSC_CAPS_WindDir_IsbL-0150_RLatLon0.03_PT026H.grib2 2026-05-04 18:19 1.0M
20260504T12Z_MSC_CAPS_WindDir_IsbL-0175_RLatLon0.03_PT026H.grib2 2026-05-04 18:19 1.0M
20260504T12Z_MSC_CAPS_WindDir_IsbL-0200_RLatLon0.03_PT026H.grib2 2026-05-04 18:19 1.1M
20260504T12Z_MSC_CAPS_WindDir_IsbL-0225_RLatLon0.03_PT026H.grib2 2026-05-04 18:19 1.1M
20260504T12Z_MSC_CAPS_WindDir_IsbL-0250_RLatLon0.03_PT026H.grib2 2026-05-04 18:19 1.1M
20260504T12Z_MSC_CAPS_WindDir_IsbL-0275_RLatLon0.03_PT026H.grib2 2026-05-04 18:19 1.1M
20260504T12Z_MSC_CAPS_WindDir_IsbL-0300_RLatLon0.03_PT026H.grib2 2026-05-04 18:19 1.1M
20260504T12Z_MSC_CAPS_WindDir_IsbL-0350_RLatLon0.03_PT026H.grib2 2026-05-04 18:19 1.1M
20260504T12Z_MSC_CAPS_WindDir_IsbL-0400_RLatLon0.03_PT026H.grib2 2026-05-04 18:19 1.1M
20260504T12Z_MSC_CAPS_WindDir_IsbL-0450_RLatLon0.03_PT026H.grib2 2026-05-04 18:19 1.2M
20260504T12Z_MSC_CAPS_WindDir_IsbL-0500_RLatLon0.03_PT026H.grib2 2026-05-04 18:19 1.3M
20260504T12Z_MSC_CAPS_WindDir_IsbL-0550_RLatLon0.03_PT026H.grib2 2026-05-04 18:19 1.3M
20260504T12Z_MSC_CAPS_WindDir_IsbL-0600_RLatLon0.03_PT026H.grib2 2026-05-04 18:19 1.3M
20260504T12Z_MSC_CAPS_WindDir_IsbL-0650_RLatLon0.03_PT026H.grib2 2026-05-04 18:19 1.4M
20260504T12Z_MSC_CAPS_WindDir_IsbL-0700_RLatLon0.03_PT026H.grib2 2026-05-04 18:19 1.5M
20260504T12Z_MSC_CAPS_WindDir_IsbL-0750_RLatLon0.03_PT026H.grib2 2026-05-04 18:19 1.6M
20260504T12Z_MSC_CAPS_WindDir_IsbL-0800_RLatLon0.03_PT026H.grib2 2026-05-04 18:19 1.7M
20260504T12Z_MSC_CAPS_WindDir_IsbL-0850_RLatLon0.03_PT026H.grib2 2026-05-04 18:19 1.8M
20260504T12Z_MSC_CAPS_WindDir_IsbL-0875_RLatLon0.03_PT026H.grib2 2026-05-04 18:19 1.8M
20260504T12Z_MSC_CAPS_WindDir_IsbL-0900_RLatLon0.03_PT026H.grib2 2026-05-04 18:19 1.9M
20260504T12Z_MSC_CAPS_WindDir_IsbL-0925_RLatLon0.03_PT026H.grib2 2026-05-04 18:19 2.0M
20260504T12Z_MSC_CAPS_WindDir_IsbL-0950_RLatLon0.03_PT026H.grib2 2026-05-04 18:19 2.0M
20260504T12Z_MSC_CAPS_WindDir_IsbL-0970_RLatLon0.03_PT026H.grib2 2026-05-04 18:19 2.1M
20260504T12Z_MSC_CAPS_WindDir_IsbL-0985_RLatLon0.03_PT026H.grib2 2026-05-04 18:19 2.2M
20260504T12Z_MSC_CAPS_WindDir_IsbL-1000_RLatLon0.03_PT026H.grib2 2026-05-04 18:19 2.3M
20260504T12Z_MSC_CAPS_WindDir_IsbL-1015_RLatLon0.03_PT026H.grib2 2026-05-04 18:19 2.3M
20260504T12Z_MSC_CAPS_WindGust-Max_AGL-10m_RLatLon0.03_PT026H.grib2 2026-05-04 18:19 2.4M
20260504T12Z_MSC_CAPS_WindGust-Min_AGL-10m_RLatLon0.03_PT026H.grib2 2026-05-04 18:19 2.5M
20260504T12Z_MSC_CAPS_WindGust_AGL-10m_RLatLon0.03_PT026H.grib2 2026-05-04 18:19 2.6M
20260504T12Z_MSC_CAPS_WindSpeed_AGL-10m_RLatLon0.03_PT026H.grib2 2026-05-04 18:19 2.1M
20260504T12Z_MSC_CAPS_WindSpeed_AGL-120m_RLatLon0.03_PT026H.grib2 2026-05-04 18:19 1.2M
20260504T12Z_MSC_CAPS_WindSpeed_AGL-40m_RLatLon0.03_PT026H.grib2 2026-05-04 18:19 1.2M
20260504T12Z_MSC_CAPS_WindSpeed_AGL-80m_RLatLon0.03_PT026H.grib2 2026-05-04 18:19 1.2M
20260504T12Z_MSC_CAPS_WindSpeed_IsbL-0050_RLatLon0.03_PT026H.grib2 2026-05-04 18:19 1.3M
20260504T12Z_MSC_CAPS_WindSpeed_IsbL-0100_RLatLon0.03_PT026H.grib2 2026-05-04 18:19 1.4M
20260504T12Z_MSC_CAPS_WindSpeed_IsbL-0150_RLatLon0.03_PT026H.grib2 2026-05-04 18:19 1.0M
20260504T12Z_MSC_CAPS_WindSpeed_IsbL-0175_RLatLon0.03_PT026H.grib2 2026-05-04 18:19 1.1M
20260504T12Z_MSC_CAPS_WindSpeed_IsbL-0200_RLatLon0.03_PT026H.grib2 2026-05-04 18:19 1.2M
20260504T12Z_MSC_CAPS_WindSpeed_IsbL-0225_RLatLon0.03_PT026H.grib2 2026-05-04 18:19 956K
20260504T12Z_MSC_CAPS_WindSpeed_IsbL-0250_RLatLon0.03_PT026H.grib2 2026-05-04 18:19 969K
20260504T12Z_MSC_CAPS_WindSpeed_IsbL-0275_RLatLon0.03_PT026H.grib2 2026-05-04 18:19 1.0M
20260504T12Z_MSC_CAPS_WindSpeed_IsbL-0300_RLatLon0.03_PT026H.grib2 2026-05-04 18:19 1.0M
20260504T12Z_MSC_CAPS_WindSpeed_IsbL-0350_RLatLon0.03_PT026H.grib2 2026-05-04 18:19 1.0M
20260504T12Z_MSC_CAPS_WindSpeed_IsbL-0400_RLatLon0.03_PT026H.grib2 2026-05-04 18:19 1.0M
20260504T12Z_MSC_CAPS_WindSpeed_IsbL-0450_RLatLon0.03_PT026H.grib2 2026-05-04 18:19 1.3M
20260504T12Z_MSC_CAPS_WindSpeed_IsbL-0500_RLatLon0.03_PT026H.grib2 2026-05-04 18:19 1.4M
20260504T12Z_MSC_CAPS_WindSpeed_IsbL-0550_RLatLon0.03_PT026H.grib2 2026-05-04 18:19 1.5M
20260504T12Z_MSC_CAPS_WindSpeed_IsbL-0600_RLatLon0.03_PT026H.grib2 2026-05-04 18:19 1.5M
20260504T12Z_MSC_CAPS_WindSpeed_IsbL-0650_RLatLon0.03_PT026H.grib2 2026-05-04 18:19 1.4M
20260504T12Z_MSC_CAPS_WindSpeed_IsbL-0700_RLatLon0.03_PT026H.grib2 2026-05-04 18:19 1.5M
20260504T12Z_MSC_CAPS_WindSpeed_IsbL-0750_RLatLon0.03_PT026H.grib2 2026-05-04 18:19 1.6M
20260504T12Z_MSC_CAPS_WindSpeed_IsbL-0800_RLatLon0.03_PT026H.grib2 2026-05-04 18:19 1.6M
20260504T12Z_MSC_CAPS_WindSpeed_IsbL-0850_RLatLon0.03_PT026H.grib2 2026-05-04 18:19 1.8M
20260504T12Z_MSC_CAPS_WindSpeed_IsbL-0875_RLatLon0.03_PT026H.grib2 2026-05-04 18:19 1.8M
20260504T12Z_MSC_CAPS_WindSpeed_IsbL-0900_RLatLon0.03_PT026H.grib2 2026-05-04 18:19 1.9M
20260504T12Z_MSC_CAPS_WindSpeed_IsbL-0925_RLatLon0.03_PT026H.grib2 2026-05-04 18:19 1.9M
20260504T12Z_MSC_CAPS_WindSpeed_IsbL-0950_RLatLon0.03_PT026H.grib2 2026-05-04 18:19 2.0M
20260504T12Z_MSC_CAPS_WindSpeed_IsbL-0970_RLatLon0.03_PT026H.grib2 2026-05-04 18:19 2.0M
20260504T12Z_MSC_CAPS_WindSpeed_IsbL-0985_RLatLon0.03_PT026H.grib2 2026-05-04 18:19 2.1M
20260504T12Z_MSC_CAPS_WindSpeed_IsbL-1000_RLatLon0.03_PT026H.grib2 2026-05-04 18:19 2.1M
20260504T12Z_MSC_CAPS_WindSpeed_IsbL-1015_RLatLon0.03_PT026H.grib2 2026-05-04 18:19 2.1M
20260504T12Z_MSC_CAPS_WindU_AGL-10m_RLatLon0.03_PT026H.grib2 2026-05-04 18:19 1.9M
20260504T12Z_MSC_CAPS_WindU_AGL-120m_RLatLon0.03_PT026H.grib2 2026-05-04 18:19 936K
20260504T12Z_MSC_CAPS_WindU_AGL-40m_RLatLon0.03_PT026H.grib2 2026-05-04 18:19 1.2M
20260504T12Z_MSC_CAPS_WindU_AGL-80m_RLatLon0.03_PT026H.grib2 2026-05-04 18:19 940K
20260504T12Z_MSC_CAPS_WindU_IsbL-0050_RLatLon0.03_PT026H.grib2 2026-05-04 18:19 945K
20260504T12Z_MSC_CAPS_WindU_IsbL-0100_RLatLon0.03_PT026H.grib2 2026-05-04 18:19 969K
20260504T12Z_MSC_CAPS_WindU_IsbL-0150_RLatLon0.03_PT026H.grib2 2026-05-04 18:19 925K
20260504T12Z_MSC_CAPS_WindU_IsbL-0175_RLatLon0.03_PT026H.grib2 2026-05-04 18:19 732K
20260504T12Z_MSC_CAPS_WindU_IsbL-0200_RLatLon0.03_PT026H.grib2 2026-05-04 18:19 884K
20260504T12Z_MSC_CAPS_WindU_IsbL-0225_RLatLon0.03_PT026H.grib2 2026-05-04 18:19 900K
20260504T12Z_MSC_CAPS_WindU_IsbL-0250_RLatLon0.03_PT026H.grib2 2026-05-04 18:19 916K
20260504T12Z_MSC_CAPS_WindU_IsbL-0275_RLatLon0.03_PT026H.grib2 2026-05-04 18:19 712K
20260504T12Z_MSC_CAPS_WindU_IsbL-0300_RLatLon0.03_PT026H.grib2 2026-05-04 18:19 718K
20260504T12Z_MSC_CAPS_WindU_IsbL-0350_RLatLon0.03_PT026H.grib2 2026-05-04 18:19 948K
20260504T12Z_MSC_CAPS_WindU_IsbL-0400_RLatLon0.03_PT026H.grib2 2026-05-04 18:19 956K
20260504T12Z_MSC_CAPS_WindU_IsbL-0450_RLatLon0.03_PT026H.grib2 2026-05-04 18:19 1.0M
20260504T12Z_MSC_CAPS_WindU_IsbL-0500_RLatLon0.03_PT026H.grib2 2026-05-04 18:19 1.0M
20260504T12Z_MSC_CAPS_WindU_IsbL-0550_RLatLon0.03_PT026H.grib2 2026-05-04 18:19 1.0M
20260504T12Z_MSC_CAPS_WindU_IsbL-0600_RLatLon0.03_PT026H.grib2 2026-05-04 18:19 1.0M
20260504T12Z_MSC_CAPS_WindU_IsbL-0650_RLatLon0.03_PT026H.grib2 2026-05-04 18:19 1.1M
20260504T12Z_MSC_CAPS_WindU_IsbL-0700_RLatLon0.03_PT026H.grib2 2026-05-04 18:19 1.1M
20260504T12Z_MSC_CAPS_WindU_IsbL-0750_RLatLon0.03_PT026H.grib2 2026-05-04 18:19 1.2M
20260504T12Z_MSC_CAPS_WindU_IsbL-0800_RLatLon0.03_PT026H.grib2 2026-05-04 18:19 1.2M
20260504T12Z_MSC_CAPS_WindU_IsbL-0850_RLatLon0.03_PT026H.grib2 2026-05-04 18:19 1.2M
20260504T12Z_MSC_CAPS_WindU_IsbL-0875_RLatLon0.03_PT026H.grib2 2026-05-04 18:19 1.3M
20260504T12Z_MSC_CAPS_WindU_IsbL-0900_RLatLon0.03_PT026H.grib2 2026-05-04 18:19 1.3M
20260504T12Z_MSC_CAPS_WindU_IsbL-0925_RLatLon0.03_PT026H.grib2 2026-05-04 18:19 1.3M
20260504T12Z_MSC_CAPS_WindU_IsbL-0950_RLatLon0.03_PT026H.grib2 2026-05-04 18:19 1.4M
20260504T12Z_MSC_CAPS_WindU_IsbL-0970_RLatLon0.03_PT026H.grib2 2026-05-04 18:19 1.4M
20260504T12Z_MSC_CAPS_WindU_IsbL-0985_RLatLon0.03_PT026H.grib2 2026-05-04 18:19 1.8M
20260504T12Z_MSC_CAPS_WindU_IsbL-1000_RLatLon0.03_PT026H.grib2 2026-05-04 18:19 1.9M
20260504T12Z_MSC_CAPS_WindU_IsbL-1015_RLatLon0.03_PT026H.grib2 2026-05-04 18:19 1.9M
20260504T12Z_MSC_CAPS_WindV_AGL-10m_RLatLon0.03_PT026H.grib2 2026-05-04 18:19 1.9M
20260504T12Z_MSC_CAPS_WindV_AGL-120m_RLatLon0.03_PT026H.grib2 2026-05-04 18:19 938K
20260504T12Z_MSC_CAPS_WindV_AGL-40m_RLatLon0.03_PT026H.grib2 2026-05-04 18:19 1.3M
20260504T12Z_MSC_CAPS_WindV_AGL-80m_RLatLon0.03_PT026H.grib2 2026-05-04 18:19 943K
20260504T12Z_MSC_CAPS_WindV_IsbL-0050_RLatLon0.03_PT026H.grib2 2026-05-04 18:19 773K
20260504T12Z_MSC_CAPS_WindV_IsbL-0100_RLatLon0.03_PT026H.grib2 2026-05-04 18:19 967K
20260504T12Z_MSC_CAPS_WindV_IsbL-0150_RLatLon0.03_PT026H.grib2 2026-05-04 18:19 708K
20260504T12Z_MSC_CAPS_WindV_IsbL-0175_RLatLon0.03_PT026H.grib2 2026-05-04 18:19 727K
20260504T12Z_MSC_CAPS_WindV_IsbL-0200_RLatLon0.03_PT026H.grib2 2026-05-04 18:19 873K
20260504T12Z_MSC_CAPS_WindV_IsbL-0225_RLatLon0.03_PT026H.grib2 2026-05-04 18:19 893K
20260504T12Z_MSC_CAPS_WindV_IsbL-0250_RLatLon0.03_PT026H.grib2 2026-05-04 18:19 911K
20260504T12Z_MSC_CAPS_WindV_IsbL-0275_RLatLon0.03_PT026H.grib2 2026-05-04 18:19 918K
20260504T12Z_MSC_CAPS_WindV_IsbL-0300_RLatLon0.03_PT026H.grib2 2026-05-04 18:19 715K
20260504T12Z_MSC_CAPS_WindV_IsbL-0350_RLatLon0.03_PT026H.grib2 2026-05-04 18:19 944K
20260504T12Z_MSC_CAPS_WindV_IsbL-0400_RLatLon0.03_PT026H.grib2 2026-05-04 18:19 952K
20260504T12Z_MSC_CAPS_WindV_IsbL-0450_RLatLon0.03_PT026H.grib2 2026-05-04 18:19 971K
20260504T12Z_MSC_CAPS_WindV_IsbL-0500_RLatLon0.03_PT026H.grib2 2026-05-04 18:19 1.0M
20260504T12Z_MSC_CAPS_WindV_IsbL-0550_RLatLon0.03_PT026H.grib2 2026-05-04 18:19 920K
20260504T12Z_MSC_CAPS_WindV_IsbL-0600_RLatLon0.03_PT026H.grib2 2026-05-04 18:19 944K
20260504T12Z_MSC_CAPS_WindV_IsbL-0650_RLatLon0.03_PT026H.grib2 2026-05-04 18:19 1.2M
20260504T12Z_MSC_CAPS_WindV_IsbL-0700_RLatLon0.03_PT026H.grib2 2026-05-04 18:19 1.0M
20260504T12Z_MSC_CAPS_WindV_IsbL-0750_RLatLon0.03_PT026H.grib2 2026-05-04 18:19 1.1M
20260504T12Z_MSC_CAPS_WindV_IsbL-0800_RLatLon0.03_PT026H.grib2 2026-05-04 18:19 1.2M
20260504T12Z_MSC_CAPS_WindV_IsbL-0850_RLatLon0.03_PT026H.grib2 2026-05-04 18:19 1.2M
20260504T12Z_MSC_CAPS_WindV_IsbL-0875_RLatLon0.03_PT026H.grib2 2026-05-04 18:19 1.3M
20260504T12Z_MSC_CAPS_WindV_IsbL-0900_RLatLon0.03_PT026H.grib2 2026-05-04 18:19 1.3M
20260504T12Z_MSC_CAPS_WindV_IsbL-0925_RLatLon0.03_PT026H.grib2 2026-05-04 18:19 1.3M
20260504T12Z_MSC_CAPS_WindV_IsbL-0950_RLatLon0.03_PT026H.grib2 2026-05-04 18:19 1.4M
20260504T12Z_MSC_CAPS_WindV_IsbL-0970_RLatLon0.03_PT026H.grib2 2026-05-04 18:19 1.4M
20260504T12Z_MSC_CAPS_WindV_IsbL-0985_RLatLon0.03_PT026H.grib2 2026-05-04 18:19 1.5M
20260504T12Z_MSC_CAPS_WindV_IsbL-1000_RLatLon0.03_PT026H.grib2 2026-05-04 18:19 1.5M
20260504T12Z_MSC_CAPS_WindV_IsbL-1015_RLatLon0.03_PT026H.grib2 2026-05-04 18:19 1.9M